This is the latest recevied weather packets stored in our database for station/object EA5FOG-11. If no packets are shown the sender has not sent any weather packets the latest 10 day(s).
| Time | Temp. | Humidity | Pressure | Rain* | Wind** | Luminosity | Snow |
|---|---|---|---|---|---|---|---|
| 1787920976 | 25° C | 45% | 961.7 hPa | - | - | - | - |
| 1787920084 | 24.44° C | 46% | 961.7 hPa | - | - | - | - |
| 1787919175 | 22.78° C | 48% | 962.2 hPa | - | - | - | - |
| 1787918274 | 21.11° C | 49% | 962.2 hPa | - | - | - | - |
| 1787917373 | 20° C | 50% | 961.8 hPa | - | - | - | - |
| 1787916472 | 20° C | 49% | 962.5 hPa | - | - | - | - |
| 1787915572 | 21.67° C | 47% | 962.5 hPa | - | - | - | - |
| 1787914671 | 22.22° C | 46% | 962 hPa | - | - | - | - |
| 1787913770 | 23.89° C | 45% | 962.5 hPa | - | - | - | - |
| 1787912869 | 22.78° C | 46% | 962.1 hPa | - | - | - | - |
| 1787911968 | 22.22° C | 45% | 962.2 hPa | - | - | - | - |
| 1787911067 | 21.67° C | 45% | 962 hPa | - | - | - | - |
| 1787910167 | 21.67° C | 45% | 961.9 hPa | - | - | - | - |
| 1787909266 | 21.11° C | 44% | 961.1 hPa | - | - | - | - |
| 1787908366 | 21.67° C | 42% | 961.2 hPa | - | - | - | - |
| 1787907472 | 22.78° C | 41% | 961.6 hPa | - | - | - | - |
| 1787906564 | 22.78° C | 41% | 961.5 hPa | - | - | - | - |
| 1787905663 | 22.78° C | 41% | 961.8 hPa | - | - | - | - |
| 1787904762 | 22.22° C | 41% | 961.4 hPa | - | - | - | - |
| 1787903861 | 22.22° C | 41% | 961 hPa | - | - | - | - |
| 1787902960 | 22.22° C | 42% | 960.9 hPa | - | - | - | - |
| 1787902059 | 22.22° C | 42% | 960.7 hPa | - | - | - | - |
| 1787901179 | 21.11° C | 42% | 960.8 hPa | - | - | - | - |
| 1787900278 | 21.11° C | 42% | 960.7 hPa | - | - | - | - |
| 1787899377 | 21.11° C | 42% | 960.6 hPa | - | - | - | - |
* Rain since midnight (hover to see other rain measurements)
** Current wind speed in m/s (hover to see current wind gust speed)